Weather History for Riverton, WY

Change the Weather History Date:

Saturday, November 24, 2012

  Actual Average Record
Temperature  
Mean Temperature 40 °F 26 °F  
Max Temperature 57 °F 37 °F 62 °F (1995)
Min Temperature 23 °F 15 °F -6 °F (2010)
Degree Days  
Heating Degree Days 25 39  
Month to date heating degree days 687 792  
Since 1 July heating degree days 1398 1672  
Cooling Degree Days 0 0  
Month to date cooling degree days 0 0  
Year to date cooling degree days 765 494  
Moisture  
Dew Point 21 °F    
Average Humidity 45    
Maximum Humidity 68    
Minimum Humidity 22    
Precipitation  
Precipitation 0.00 in 0.02 in 0.18 in (2002)
Month to date precipitation 0.32 0.41  
Year to date precipitation 2.87 9.02  
Snow  
Snow 0.00 in - - ()
Month to date snowfall 1.4  
Since 1 July snowfall 2.5  
Since 1 September snowfall 2.5  
Snow Depth 0.00 in    
Sea Level Pressure  
Sea Level Pressure 30.04 in    
Wind  
Wind Speed 8 mph (WSW)    
Max Wind Speed 17 mph    
Max Gust Speed 22 mph    
Visibility 10 miles    
Events      
T = Trace of Precipitation, MM = Missing Value Source: NWS Daily Summary

Daily Weather History Graph

Daily Weather History Graph

Search for Another Location

Airport:

Trip Planner

Search our weather history database for the weather conditions in past years. The results will help you decide how hot, cold, wet, or windy it might be!

Date:

Astronomy

Nov. 24, 2012 Rise Set
Actual Time 7:18 AM MST 4:42 PM MST
Civil Twilight 6:46 AM MST 5:14 PM MST
Nautical Twilight 6:11 AM MST 5:49 PM MST
Astronomical Twilight 5:37 AM MST 6:23 PM MST
Moon 2:33 PM MST (11/24) 3:33 AM MST (11/24)
Length of Visible Light 10h 27m
Length of Day
9h 24m
Waxing Gibbous, 87% of the Moon is Illuminated
Nov 24
Waxing Gibbous
Nov 28
Full
Dec 6
Last Quarter
Dec 13
New
Dec 19
First Quarter

Hourly Weather History & Observations

Time (MST) Temp. Windchill Dew Point Humidity Pressure Visibility Wind Dir Wind Speed Gust Speed Precip Events Conditions
12:53 AM 32.0 °F 26.4 °F 15.1 °F 50% 30.19 in 10.0 mi SW 5.8 mph - N/A   Clear
1:53 AM 27.0 °F 23.0 °F 15.1 °F 61% 30.20 in 10.0 mi West 3.5 mph - N/A   Clear
2:53 AM 24.1 °F - 15.1 °F 69% 30.19 in 10.0 mi Calm Calm - N/A   Clear
3:53 AM 28.0 °F 22.8 °F 15.1 °F 58% 30.14 in 10.0 mi West 4.6 mph - N/A   Clear
4:53 AM 27.0 °F - 15.1 °F 61% 30.16 in 10.0 mi Calm Calm - N/A   Clear
5:53 AM 27.0 °F - 15.1 °F 61% 30.14 in 10.0 mi Calm Calm - N/A   Clear
6:53 AM 24.1 °F 19.7 °F 14.0 °F 65% 30.16 in 10.0 mi SSW 3.5 mph - N/A   Clear
7:53 AM 28.0 °F 18.6 °F 17.1 °F 63% 30.12 in 10.0 mi WSW 10.4 mph - N/A   Clear
8:53 AM 30.9 °F 22.8 °F 18.0 °F 59% 30.11 in 10.0 mi WSW 9.2 mph - N/A   Clear
9:53 AM 39.9 °F 35.8 °F 19.0 °F 43% 30.08 in 10.0 mi WSW 5.8 mph - N/A   Clear
10:53 AM 44.1 °F 40.8 °F 18.0 °F 35% 30.06 in 10.0 mi SW 5.8 mph - N/A   Clear
11:53 AM 42.1 °F 36.6 °F 21.0 °F 43% 30.03 in 10.0 mi SW 9.2 mph - N/A   Clear
12:53 PM 53.1 °F - 15.1 °F 22% 29.95 in 10.0 mi South 6.9 mph - N/A   Clear
1:53 PM 55.9 °F - 19.0 °F 24% 29.94 in 10.0 mi WNW 5.8 mph - N/A   Clear
2:53 PM 55.9 °F - 21.9 °F 27% 29.94 in 10.0 mi WNW 10.4 mph - N/A   Clear
3:53 PM 54.0 °F - 21.0 °F 28% 29.94 in 10.0 mi WNW 11.5 mph - N/A   Clear
4:53 PM 48.0 °F - 25.0 °F 41% 29.96 in 10.0 mi NNW 9.2 mph - N/A   Clear
5:53 PM 46.0 °F 39.3 °F 27.0 °F 47% 29.98 in 10.0 mi NW 16.1 mph - N/A   Scattered Clouds
6:53 PM 45.0 °F 38.2 °F 28.0 °F 52% 29.99 in 10.0 mi NW 15.0 mph - N/A   Overcast
7:53 PM 45.0 °F 38.5 °F 28.0 °F 52% 29.96 in 10.0 mi NW 13.8 mph - N/A   Overcast
8:53 PM 41.0 °F 38.0 °F 28.0 °F 60% 29.98 in 10.0 mi South 4.6 mph - N/A   Overcast
9:53 PM 41.0 °F 36.4 °F 28.9 °F 62% 29.94 in 10.0 mi SSW 6.9 mph - N/A   Overcast
10:53 PM 42.1 °F 35.7 °F 28.9 °F 60% 29.92 in 10.0 mi West 11.5 mph - N/A   Overcast
11:53 PM 42.1 °F 36.1 °F 28.9 °F 60% 29.91 in 10.0 mi West 10.4 mph - N/A   Overcast